Glasgow, MT

7:00 AM MDT on August 21, 2017 (GMT -0600)
Wokal-Glasgow International

Weather History for KGGW - May, 2012

Change the Weather History Date:

Wednesday, May 30, 2012

  Actual Average Record
Temperature  
Mean Temperature 55 °F 59 °F  
Max Temperature 66 °F 72 °F 96 °F (1984)
Min Temperature 43 °F 47 °F 30 °F (1913)
Degree Days  
Heating Degree Days 10 7  
Month to date heating degree days 355 318  
Since 1 July heating degree days 7082 8325  
Cooling Degree Days 0 1  
Month to date cooling degree days 7 10  
Year to date cooling degree days 10 11  
Growing Degree Days 4 (Base 50)    
Moisture  
Dew Point 45 °F    
Average Humidity 73    
Maximum Humidity 93    
Minimum Humidity 52    
Precipitation  
Precipitation 0.14 in 0.08 in 1.60 in (1985)
Month to date precipitation 3.06 1.83  
Year to date precipitation 5.71 3.73  
Snow  
Snow 0.00 in 0.00 in T in (1982)
Month to date snowfall 0.0 1.2  
Since 1 July snowfall 25.7 34.8  
Snow Depth 0.00 in    
Sea Level Pressure  
Sea Level Pressure 29.98 in    
Wind  
Wind Speed 8 mph (East)    
Max Wind Speed 17 mph    
Max Gust Speed 21 mph    
Visibility 9 miles    
Events Rain , Thunderstorm    
T = Trace of Precipitation, MM = Missing Value Source: NWS Daily Summary

Daily Weather History Graph

Daily Weather History Graph

Search for Another Location

Airport or City:

Trip Planner

Search our weather history database for the weather conditions in past years. The results will help you decide how hot, cold, wet, or windy it might be!

Date:

Astronomy

May. 30, 2012 Rise Set
Actual Time 5:11 AM MDT 8:57 PM MDT
Civil Twilight 4:31 AM MDT 9:37 PM MDT
Nautical Twilight 3:37 AM MDT 10:32 PM MDT
Astronomical Twilight 2:18 AM MDT 11:52 PM MDT
Moon 3:18 PM MDT (5/30) 2:02 AM MDT (5/30)
Length of Visible Light 17h 06m
Length of Day
15h 46m
Waxing Gibbous, 71% of the Moon is Illuminated
May 30
Waxing Gibbous
Jun 4
Full
Jun 11
Last Quarter
Jun 19
New
Jun 26
First Quarter

Hourly Weather History & Observations

Time (MDT) Temp. Windchill Dew Point Humidity Pressure Visibility Wind Dir Wind Speed Gust Speed Precip Events Conditions
12:53 AM 46.9 °F - 39.0 °F 74% 29.97 in 10.0 mi East 15.0 mph - N/A   Mostly Cloudy
1:53 AM 48.0 °F - 39.0 °F 71% 29.96 in 10.0 mi East 15.0 mph - N/A   Mostly Cloudy
2:53 AM 46.9 °F - 39.0 °F 74% 29.93 in 10.0 mi East 13.8 mph - N/A   Scattered Clouds
3:53 AM 46.9 °F - 39.0 °F 74% 29.95 in 10.0 mi ESE 11.5 mph - N/A   Mostly Cloudy
4:26 AM 46.4 °F 41.1 °F 39.2 °F 76% 29.93 in 10.0 mi ESE 11.5 mph - 0.00 in   Overcast
4:53 AM 46.0 °F 40.2 °F 39.9 °F 79% 29.94 in 10.0 mi East 12.7 mph - 0.00 in   Overcast
5:53 AM 44.1 °F 38.1 °F 41.0 °F 89% 29.95 in 10.0 mi East 11.5 mph - N/A   Clear
6:53 AM 46.0 °F 40.6 °F 42.1 °F 86% 29.96 in 10.0 mi East 11.5 mph - N/A   Partly Cloudy
7:53 AM 48.0 °F - 43.0 °F 83% 29.96 in 10.0 mi ESE 9.2 mph - N/A   Overcast
8:53 AM 52.0 °F - 44.1 °F 74% 29.96 in 10.0 mi SE 6.9 mph - N/A   Mostly Cloudy
9:53 AM 55.9 °F - 46.0 °F 69% 29.96 in 10.0 mi SW 5.8 mph - N/A   Clear
10:53 AM 57.9 °F - 46.9 °F 67% 29.95 in 10.0 mi WSW 5.8 mph - N/A   Partly Cloudy
11:53 AM 60.1 °F - 45.0 °F 57% 29.96 in 10.0 mi WNW 3.5 mph - N/A   Clear
12:53 PM 61.0 °F - 46.0 °F 58% 29.96 in 10.0 mi Calm Calm - N/A   Scattered Clouds
1:53 PM 63.0 °F - 46.0 °F 54% 29.95 in 10.0 mi Variable 5.8 mph - N/A   Partly Cloudy
2:53 PM 64.9 °F - 46.0 °F 50% 29.95 in 10.0 mi West 8.1 mph - N/A   Mostly Cloudy
3:17 PM 62.6 °F - 46.4 °F 55% 29.95 in 10.0 mi ENE 13.8 mph - N/A   Mostly Cloudy
3:53 PM 61.0 °F - 48.9 °F 64% 29.97 in 10.0 mi ENE 12.7 mph - N/A   Scattered Clouds
4:53 PM 63.0 °F - 48.0 °F 58% 29.97 in 10.0 mi East 11.5 mph - N/A   Partly Cloudy
5:53 PM 60.1 °F - 48.0 °F 64% 29.99 in 10.0 mi East 11.5 mph - N/A   Partly Cloudy
6:53 PM 57.9 °F - 48.9 °F 72% 30.00 in 10.0 mi East 10.4 mph - 0.00 in Thunderstorm Mostly Cloudy
7:13 PM 57.2 °F - 48.2 °F 72% 29.98 in 10.0 mi ESE 9.2 mph - 0.00 in Rain Light Rain
7:50 PM 55.4 °F - 48.2 °F 77% 30.01 in 2.0 mi NNE 8.1 mph - 0.04 in Rain , Thunderstorm Heavy Rain
7:53 PM 54.0 °F - 48.9 °F 83% 30.04 in 1.5 mi NE 5.8 mph - 0.06 in Rain , Thunderstorm Heavy Rain
8:04 PM 55.4 °F - 48.2 °F 77% 30.01 in 3.0 mi East 3.5 mph - 0.03 in Rain , Thunderstorm Light Rain
8:21 PM 53.6 °F - 50.0 °F 88% 30.01 in 10.0 mi SSE 5.8 mph - 0.03 in   Mostly Cloudy
8:53 PM 53.1 °F - 48.9 °F 86% 30.03 in 10.0 mi SE 4.6 mph - 0.03 in   Scattered Clouds
9:53 PM 52.0 °F - 48.9 °F 89% 30.04 in 10.0 mi Calm Calm - N/A   Partly Cloudy
10:53 PM 50.0 °F - 48.0 °F 93% 30.05 in 10.0 mi ENE 3.5 mph - N/A   Mostly Cloudy
11:53 PM 48.0 °F - 46.9 °F 96% 30.06 in 10.0 mi Calm Calm - N/A   Clear